N613HK EDXW-EDDG

Flight info

Callsign N613HK
Flight time 0h 48m
Altitude 22000
Route EDXW 32 SID OLDIP DCT BADOS DCT OMWEG Y348 ELSOB M170 STADE Y348 MAWEQ Z718 OSNAD ILS 25 EDDG
Aircraft SF50/L-V/N

Departure

Time 2026-04-25 19:18
Airport Westerland Sylt Airport (EDXW)

Arrival

Time 2026-04-25 20:06
Airport Münster Osnabrück Airport (EDDG)
Time Latitude Longitude Altitude Speed Heading
2026-04-25 19:02 54.91225 8.32540 24 ft 0 kts 242°
2026-04-25 19:13 54.91233 8.32547 24 ft 6 kts 68°
2026-04-25 19:13 54.91209 8.32612 24 ft 6 kts 138°
2026-04-25 19:14 54.91163 8.32698 24 ft 23 kts 131°
2026-04-25 19:14 54.91121 8.32786 25 ft 33 kts 131°
2026-04-25 19:14 54.90870 8.33174 28 ft 25 kts 156°
2026-04-25 19:14 54.90696 8.33225 26 ft 29 kts 176°
2026-04-25 19:15 54.90507 8.33271 24 ft 27 kts 158°
2026-04-25 19:15 54.90340 8.33460 23 ft 28 kts 129°
2026-04-25 19:15 54.90262 8.33769 23 ft 28 kts 98°
2026-04-25 19:15 54.90236 8.34099 25 ft 24 kts 90°
2026-04-25 19:16 54.90264 8.34325 26 ft 17 kts 63°
2026-04-25 19:16 54.90322 8.34490 27 ft 19 kts 54°
2026-04-25 19:16 54.90448 8.34695 30 ft 22 kts 50°
2026-04-25 19:16 54.90528 8.34823 31 ft 11 kts 45°
2026-04-25 19:17 54.90575 8.34901 31 ft 13 kts 40°
2026-04-25 19:17 54.90660 8.34858 31 ft 5 kts 326°
2026-04-25 19:17 54.90768 8.34725 31 ft 55 kts 326°
2026-04-25 19:17 54.91219 8.34159 216 ft 96 kts 322°
2026-04-25 19:18 54.91840 8.33349 589 ft 126 kts 322°
2026-04-25 19:18 54.92625 8.32336 885 ft 155 kts 326°
2026-04-25 19:18 54.93573 8.31171 1185 ft 169 kts 326°
2026-04-25 19:18 54.94513 8.30018 1438 ft 166 kts 326°
2026-04-25 19:19 54.95455 8.28862 1686 ft 164 kts 326°
2026-04-25 19:19 54.96404 8.27693 1948 ft 173 kts 326°
2026-04-25 19:19 54.97415 8.26450 2341 ft 183 kts 327°
2026-04-25 19:19 54.97769 8.26017 2474 ft 186 kts 327°
2026-04-25 19:20 54.98412 8.22408 3096 ft 228 kts 261°
2026-04-25 19:20 54.97552 8.19979 3573 ft 237 kts 245°
2026-04-25 19:20 54.96594 8.17627 4084 ft 239 kts 244°
2026-04-25 19:20 54.95622 8.15276 4593 ft 240 kts 243°
2026-04-25 19:21 54.94475 8.13168 5073 ft 257 kts 215°
2026-04-25 19:21 54.91019 8.13974 6085 ft 271 kts 135°
2026-04-25 19:21 54.89690 8.16266 6601 ft 269 kts 135°
2026-04-25 19:22 54.88290 8.18388 7110 ft 274 kts 137°
2026-04-25 19:22 54.86806 8.20516 7620 ft 278 kts 139°
2026-04-25 19:22 54.83787 8.24804 8620 ft 284 kts 139°
2026-04-25 19:23 54.82229 8.26920 9120 ft 286 kts 147°
2026-04-25 19:23 54.78889 8.30573 10116 ft 288 kts 148°
2026-04-25 19:23 54.77186 8.32436 10623 ft 289 kts 148°
2026-04-25 19:24 54.75500 8.34274 11117 ft 290 kts 148°
2026-04-25 19:24 54.73772 8.36152 11617 ft 291 kts 148°
2026-04-25 19:24 54.70360 8.39873 12598 ft 292 kts 148°
2026-04-25 19:25 54.67792 8.44901 13579 ft 280 kts 105°
2026-04-25 19:25 54.67045 8.47939 14061 ft 279 kts 102°
2026-04-25 19:25 54.66310 8.51058 14563 ft 279 kts 102°
2026-04-25 19:26 54.65591 8.54124 15049 ft 279 kts 102°
2026-04-25 19:26 54.64854 8.57242 15541 ft 279 kts 102°
2026-04-25 19:26 54.64134 8.60298 16027 ft 279 kts 102°
2026-04-25 19:26 54.63406 8.63366 16518 ft 278 kts 102°
2026-04-25 19:27 54.62671 8.66468 16958 ft 280 kts 103°
2026-04-25 19:27 54.62427 8.67504 17032 ft 284 kts 102°
2026-04-25 19:27 54.60596 8.72437 17449 ft 310 kts 131°
2026-04-25 19:27 54.59071 8.75105 17700 ft 317 kts 133°
2026-04-25 19:28 54.57506 8.77831 17952 ft 322 kts 132°
2026-04-25 19:28 54.55940 8.80571 18195 ft 327 kts 132°
2026-04-25 19:28 54.54328 8.83401 18445 ft 330 kts 132°
2026-04-25 19:28 54.52720 8.86204 18691 ft 333 kts 132°
2026-04-25 19:29 54.51087 8.89057 18933 ft 335 kts 132°
2026-04-25 19:29 54.49458 8.91896 19176 ft 337 kts 132°
2026-04-25 19:29 54.47820 8.94755 19428 ft 338 kts 132°
2026-04-25 19:29 54.46172 8.97617 19681 ft 339 kts 131°
2026-04-25 19:30 54.44497 9.00534 19927 ft 340 kts 132°
2026-04-25 19:30 54.42847 9.03392 20169 ft 340 kts 131°
2026-04-25 19:30 54.41195 9.06264 20412 ft 340 kts 131°
2026-04-25 19:30 54.39532 9.09141 20661 ft 341 kts 131°
2026-04-25 19:31 54.37854 9.12048 20910 ft 341 kts 131°
2026-04-25 19:31 54.35973 9.14516 21171 ft 342 kts 148°
2026-04-25 19:31 54.33951 9.16577 21413 ft 342 kts 150°
2026-04-25 19:31 54.31896 9.18633 21665 ft 342 kts 150°
2026-04-25 19:32 54.29852 9.20665 21916 ft 342 kts 150°
2026-04-25 19:32 54.27806 9.22703 22059 ft 346 kts 150°
2026-04-25 19:32 54.25698 9.24800 22089 ft 354 kts 150°
2026-04-25 19:32 54.24992 9.25500 22091 ft 356 kts 150°
2026-04-25 19:33 54.21379 9.29098 22096 ft 366 kts 150°
2026-04-25 19:33 54.19152 9.31301 22096 ft 370 kts 150°
2026-04-25 19:33 54.16934 9.33493 22097 ft 373 kts 150°
2026-04-25 19:33 54.14674 9.35732 22097 ft 376 kts 150°
2026-04-25 19:34 54.12407 9.37973 22098 ft 377 kts 150°
2026-04-25 19:34 54.10154 9.40193 22101 ft 378 kts 150°
2026-04-25 19:34 54.07869 9.42451 22099 ft 379 kts 150°
2026-04-25 19:34 54.05596 9.44679 22099 ft 379 kts 150°
2026-04-25 19:35 54.03339 9.46898 22095 ft 379 kts 150°
2026-04-25 19:35 54.01046 9.49096 22085 ft 378 kts 156°
2026-04-25 19:35 53.98541 9.50138 22106 ft 371 kts 175°
2026-04-25 19:35 53.95990 9.50773 22102 ft 369 kts 177°
2026-04-25 19:36 53.93444 9.51374 22105 ft 369 kts 177°
2026-04-25 19:36 53.90904 9.51971 22103 ft 369 kts 177°
2026-04-25 19:36 53.88356 9.52564 22092 ft 369 kts 177°
2026-04-25 19:36 53.85822 9.53158 22091 ft 368 kts 177°
2026-04-25 19:37 53.83318 9.53745 22089 ft 368 kts 177°
2026-04-25 19:37 53.80790 9.54341 22092 ft 367 kts 177°
2026-04-25 19:37 53.78254 9.54926 22091 ft 366 kts 177°
2026-04-25 19:37 53.75757 9.55512 22090 ft 366 kts 177°
2026-04-25 19:38 53.73248 9.56091 22093 ft 365 kts 177°
2026-04-25 19:38 53.70728 9.56679 22098 ft 364 kts 177°
2026-04-25 19:38 53.68241 9.57253 22095 ft 364 kts 177°
2026-04-25 19:38 53.65731 9.57561 22071 ft 353 kts 195°
2026-04-25 19:39 53.63512 9.56316 22109 ft 334 kts 214°
2026-04-25 19:39 53.61410 9.54650 22108 ft 332 kts 216°
2026-04-25 19:39 53.59335 9.52928 22107 ft 332 kts 217°
2026-04-25 19:39 53.57287 9.51218 22102 ft 332 kts 217°
2026-04-25 19:40 53.55217 9.49473 22098 ft 331 kts 217°
2026-04-25 19:40 53.53183 9.47766 22104 ft 331 kts 217°
2026-04-25 19:40 53.51105 9.46017 22105 ft 331 kts 217°
2026-04-25 19:40 53.48998 9.44427 22087 ft 341 kts 206°
2026-04-25 19:41 53.46744 9.43253 22106 ft 341 kts 206°
2026-04-25 19:41 53.44505 9.42101 22106 ft 341 kts 206°
2026-04-25 19:41 53.42228 9.40925 22104 ft 340 kts 206°
2026-04-25 19:41 53.41466 9.40531 22106 ft 341 kts 206°
2026-04-25 19:42 53.37714 9.38599 22113 ft 340 kts 205°
2026-04-25 19:42 53.35446 9.37439 22115 ft 340 kts 205°
2026-04-25 19:42 53.33186 9.36281 22115 ft 341 kts 205°
2026-04-25 19:42 53.30941 9.35128 22119 ft 340 kts 205°
2026-04-25 19:43 53.28674 9.33969 22124 ft 339 kts 205°
2026-04-25 19:43 53.26439 9.32825 22122 ft 339 kts 205°
2026-04-25 19:43 53.24159 9.31663 22120 ft 339 kts 205°
2026-04-25 19:43 53.21935 9.30527 22122 ft 339 kts 205°
2026-04-25 19:44 53.19667 9.29370 22121 ft 338 kts 205°
2026-04-25 19:44 53.17430 9.28228 22125 ft 339 kts 205°
2026-04-25 19:44 53.15168 9.27083 22126 ft 338 kts 205°
2026-04-25 19:44 53.12942 9.25949 22128 ft 338 kts 205°
2026-04-25 19:45 53.10686 9.24800 22135 ft 338 kts 205°
2026-04-25 19:45 53.08455 9.23671 22139 ft 337 kts 205°
2026-04-25 19:45 53.06204 9.22530 22146 ft 337 kts 205°
2026-04-25 19:45 53.03954 9.21396 22138 ft 337 kts 205°
2026-04-25 19:46 53.01732 9.20272 22141 ft 337 kts 204°
2026-04-25 19:46 52.99504 9.19149 22141 ft 337 kts 204°
2026-04-25 19:46 52.97259 9.18013 22145 ft 337 kts 204°
2026-04-25 19:46 52.95031 9.16831 22127 ft 332 kts 212°
2026-04-25 19:47 52.93004 9.15090 22119 ft 328 kts 216°
2026-04-25 19:47 52.91021 9.13348 21805 ft 322 kts 216°
2026-04-25 19:47 52.89075 9.11644 21376 ft 318 kts 216°
2026-04-25 19:47 52.87123 9.09932 20922 ft 315 kts 216°
2026-04-25 19:48 52.85198 9.08246 20473 ft 313 kts 216°
2026-04-25 19:48 52.83294 9.06582 20022 ft 311 kts 216°
2026-04-25 19:48 52.81393 9.04920 19573 ft 308 kts 217°
2026-04-25 19:48 52.79510 9.03273 19125 ft 307 kts 217°
2026-04-25 19:49 52.77617 9.01619 18669 ft 310 kts 217°
2026-04-25 19:49 52.77002 9.01082 18532 ft 313 kts 216°
2026-04-25 19:49 52.73747 8.98243 17805 ft 317 kts 216°
2026-04-25 19:49 52.71825 8.96573 17356 ft 315 kts 216°
2026-04-25 19:50 52.68073 8.93085 16463 ft 306 kts 223°
2026-04-25 19:50 52.66127 8.91502 16000 ft 308 kts 216°
2026-04-25 19:50 52.64228 8.89921 15560 ft 307 kts 216°
2026-04-25 19:51 52.62343 8.88320 15118 ft 306 kts 216°
2026-04-25 19:51 52.60482 8.86726 14745 ft 302 kts 216°
2026-04-25 19:51 52.58618 8.85119 14368 ft 300 kts 216°
2026-04-25 19:51 52.56801 8.83549 13996 ft 298 kts 216°
2026-04-25 19:52 52.54965 8.81967 13626 ft 296 kts 216°
2026-04-25 19:52 52.53167 8.80411 13258 ft 294 kts 216°
2026-04-25 19:52 52.51354 8.78849 12895 ft 293 kts 216°
2026-04-25 19:52 52.49562 8.77309 12527 ft 292 kts 216°
2026-04-25 19:53 52.47762 8.75755 12159 ft 291 kts 216°
2026-04-25 19:53 52.45991 8.74234 11793 ft 291 kts 216°
2026-04-25 19:53 52.44196 8.72690 11412 ft 290 kts 216°
2026-04-25 19:53 52.42424 8.71170 11036 ft 289 kts 216°
2026-04-25 19:54 52.40667 8.69658 10662 ft 282 kts 215°
2026-04-25 19:54 52.38949 8.68191 10283 ft 275 kts 216°
2026-04-25 19:54 52.37264 8.66761 9899 ft 270 kts 216°
2026-04-25 19:54 52.36709 8.66282 9768 ft 269 kts 216°
2026-04-25 19:55 52.33988 8.63954 9132 ft 264 kts 216°
2026-04-25 19:55 52.32375 8.62580 8751 ft 266 kts 216°
2026-04-25 19:55 52.30721 8.61172 8369 ft 267 kts 215°
2026-04-25 19:55 52.29081 8.59770 7990 ft 268 kts 215°
2026-04-25 19:56 52.27562 8.58126 7582 ft 255 kts 239°
2026-04-25 19:56 52.26788 8.55674 7369 ft 240 kts 253°
2026-04-25 19:56 52.26135 8.53214 7124 ft 237 kts 255°
2026-04-25 19:56 52.25514 8.50761 6859 ft 235 kts 256°
2026-04-25 19:57 52.24895 8.48283 6601 ft 234 kts 256°
2026-04-25 19:57 52.24281 8.45823 6349 ft 234 kts 255°
2026-04-25 19:57 52.23680 8.43394 6096 ft 233 kts 255°
2026-04-25 19:57 52.23066 8.40886 5843 ft 245 kts 255°
2026-04-25 19:58 52.22417 8.38261 5602 ft 251 kts 255°
2026-04-25 19:58 52.21766 8.35635 5340 ft 249 kts 255°
2026-04-25 19:58 52.21124 8.33042 5191 ft 244 kts 254°
2026-04-25 19:58 52.20502 8.30529 5169 ft 239 kts 253°
2026-04-25 19:59 52.20075 8.28008 5146 ft 226 kts 277°
2026-04-25 19:59 52.20138 8.25461 5174 ft 222 kts 278°
2026-04-25 19:59 52.20224 8.22948 5052 ft 225 kts 278°
2026-04-25 19:59 52.20318 8.20354 4702 ft 233 kts 278°
2026-04-25 20:00 52.20412 8.17722 4338 ft 235 kts 278°
2026-04-25 20:00 52.20441 8.16835 4267 ft 233 kts 278°
2026-04-25 20:00 52.20597 8.12489 3831 ft 227 kts 277°
2026-04-25 20:00 52.20693 8.09963 3579 ft 226 kts 277°
2026-04-25 20:01 52.20859 8.05050 3103 ft 207 kts 277°
2026-04-25 20:01 52.20616 8.02809 3074 ft 200 kts 257°
2026-04-25 20:01 52.20209 8.00694 3066 ft 190 kts 258°
2026-04-25 20:02 52.19797 7.98680 3068 ft 183 kts 258°
2026-04-25 20:02 52.19392 7.96743 3065 ft 179 kts 258°
2026-04-25 20:02 52.19006 7.94846 3068 ft 178 kts 258°
2026-04-25 20:02 52.18604 7.92918 3064 ft 177 kts 258°
2026-04-25 20:03 52.18217 7.91019 2905 ft 179 kts 258°
2026-04-25 20:03 52.17809 7.89080 2672 ft 181 kts 258°
2026-04-25 20:03 52.17400 7.87136 2429 ft 182 kts 257°
2026-04-25 20:03 52.16985 7.85166 2173 ft 187 kts 257°
2026-04-25 20:04 52.16567 7.83179 1917 ft 187 kts 257°
2026-04-25 20:04 52.16147 7.81179 1669 ft 187 kts 257°
2026-04-25 20:04 52.15729 7.79179 1413 ft 183 kts 257°
2026-04-25 20:04 52.15328 7.77302 1197 ft 161 kts 251°
2026-04-25 20:05 52.14972 7.75833 968 ft 129 kts 264°
2026-04-25 20:05 52.14722 7.74544 801 ft 116 kts 264°
2026-04-25 20:05 52.14452 7.73300 636 ft 118 kts 258°
2026-04-25 20:05 52.14214 7.72123 531 ft 95 kts 259°
2026-04-25 20:06 52.14028 7.71194 376 ft 86 kts 252°
2026-04-25 20:06 52.13835 7.70298 254 ft 81 kts 254°
2026-04-25 20:06 52.13660 7.69442 164 ft 74 kts 251°
2026-04-25 20:06 52.13517 7.68746 159 ft 49 kts 250°
2026-04-25 20:07 52.13430 7.68344 155 ft 30 kts 244°
2026-04-25 20:07 52.13285 7.68307 155 ft 25 kts 166°
2026-04-25 20:07 52.13157 7.68346 155 ft 4 kts 256°
2026-04-25 20:07 52.13153 7.68299 155 ft 3 kts 270°
2026-04-25 20:08 52.13153 7.68298 155 ft 0 kts 271°
2026-04-25 20:08 52.13153 7.68286 155 ft 0 kts 268°